Tracking 35274 objects as of 11-Sep-2026
HD Live streaming from Space Station
objects crossing your sky now

PEGASUS DEB


PEGASUS DEB is no longer on orbit


NORAD ID: 25271
Int'l Code: 1994-029ADJ
Launch date: May 19, 1994
Source: United States (US)
Launch site: AIR FORCE WESTERN TEST RANGE (AFWTR)
Decay date: 2004-11-24

Note: This is SATELLITE DEBRIS
Your satellite tracking list
Your tracking list is empty




NASA's NSSDC Master Catalog

Two Line Element Set (TLE):
1 25271U 94029ADJ 04329.03686941  .13442194 -10914-5  44154-2 0  9995
2 25271 081.6550 171.6702 0019242 093.6781 266.8128 16.25447439415233
Source of the keplerian elements: AFSPC